Overview Statistics Trail Chart Weather Telemetry Raw packets
 

This is the latest recevied weather packets stored in our database for station/object SP9MUF-14. If no packets are shown the sender has not sent any weather packets the latest 10 day(s).

<< 50 51 52 53 54 55 56 >>
Time Temp. Humidity Pressure Rain* Wind** Luminosity Snow
1787835616 25.56° C 39% 1020.2 hPa 0 mm - 488 W/m² -
1787835314 25.56° C 39% 1020.2 hPa 0 mm - 504 W/m² -
1787835012 25° C 42% 1020.3 hPa 0 mm - 406 W/m² -
1787834712 25.56° C 41% 1020.2 hPa 0 mm - 542 W/m² -
1787834407 25.56° C 41% 1020.1 hPa 0 mm - 534 W/m² -
1787834105 25.56° C 40% 1020.3 hPa 0 mm - 544 W/m² -
1787833803 25.56° C 40% 1020.5 hPa 0 mm - 567 W/m² -
1787833501 25° C 41% 1020.2 hPa 0 mm - 569 W/m² -
1787833199 25.56° C 39% 1020.3 hPa 0 mm - 582 W/m² -
1787832896 25.56° C 42% 1020.4 hPa 0 mm - 578 W/m² -
1787832594 25.56° C 40% 1020.4 hPa 0 mm - 595 W/m² -
1787831990 25° C 43% 1020.6 hPa 0 mm - 623 W/m² -
1787831687 25.56° C 43% 1020.5 hPa 0 mm - 609 W/m² -
1787831385 25.56° C 41% 1020.6 hPa 0 mm - 610 W/m² -
1787831083 25.56° C 42% 1020.6 hPa 0 mm - 640 W/m² -
1787830781 25.56° C 42% 1020.6 hPa 0 mm - 625 W/m² -
1787830478 25° C 43% 1020.6 hPa 0 mm - 640 W/m² -
1787830176 25° C 43% 1020.6 hPa 0 mm - 614 W/m² -
1787829874 23.89° C 44% 1020.7 hPa 0 mm - 620 W/m² -
1787829572 25° C 45% 1020.8 hPa 0 mm - 624 W/m² -
1787829270 25° C 46% 1020.7 hPa 0 mm - 628 W/m² -
1787828968 25° C 47% 1020.7 hPa 0 mm - 654 W/m² -
1787828665 23.89° C 46% 1020.8 hPa 0 mm - 651 W/m² -
1787828363 25° C 45% 1020.8 hPa 0 mm - 649 W/m² -
1787828061 23.89° C 47% 1020.9 hPa 0 mm - 630 W/m² -

* Rain latest hour (hover to see other rain measurements)
** Current wind speed in m/s (hover to see current wind gust speed)